STARLINK-5126 (54012 NORAD) Tracking and Keplerian Element Data

This shows tracking and keplerian element data for the satellite.

Feedback or suggestion? Click here.




ElementValue
Catalog54012
NameSTARLINK-5126
Epoch Orbit130
Epoch Day324.91667824
Epoch Year2022
RAAN224.164
Inclination53.2158
Eccentricity0.0002418
Argument of Perigee22.9997
Mean Anonmoly186.5963
Mean Motion15.73239932
Decay Rate-0.00078349
L11 54012U 22125BA 22324.91667824 -.00078349 00000+0 -55797-3 0 9998
L22 54012 53.2158 224.1640 0002418 22.9997 186.5963 15.73239932 1306



Live tracking and technical data element details for STARLINK-5126 (NORAD 54012). STARLINK-5126 can be tracked NOW for your location showing map with azimuth and elevation plus other details from your city location.







IsCatalogInMostPopularTable: catalog: 54012, numindb: 3
Update: records affected: 1



GetName: 54012 STARLINK-5126

Hit Count: updated at: Mon, 28 Nov 2022 21:55:30 GMT